Location: Peebles
(55.6412°N, 3.1714°W)
Time: 15:38:38
(UTC+01:00)

USA 215 - Pass Details

Date: 26 September 2021
Orbit: 1093 x 1114 km, 123.0° (Epoch: 14 October)

Event Time Altitude Azimuth Distance (km) Brightness Sun altitude
Exits shadow 21:11:37 18° 159° (SSE) 2,405 4.6 -18.7°
Maximum altitude 21:16:05 41° 220° (SW) 1,543 4.1 -19.3°
Drops below altitude 10° 21:22:13 10° 290° (WNW) 2,970 6.7 -20.1°
Sets 21:24:54 0° 297° (WNW) 3,934 7.8 -20.4°
